| time (UTC) | temp F | wind direction | speed MPH | gust MPH | rain 1hr in | rain 24hr in | rain mn in | humidity % | barometer mb |
| 20260504100511 | 46 | 72 | 0.0 | 2.0 | 0.00 | 0.00 | 0.00 | 63 | 1012.6 |
| 20260504081547 | 48 | 157 | 0.0 | 2.0 | 0.00 | 0.00 | 0.00 | 60 | 1013.0 |
| 20260504081048 | 48 | 148 | 0.0 | 2.0 | 0.00 | 0.00 | 0.00 | 60 | 1012.9 |
| 20260504080546 | 48 | 160 | 0.0 | 2.0 | 0.00 | 0.00 | 0.00 | 60 | 1012.9 |
| 20260504050517 | 49 | 138 | 0.0 | 2.0 | 0.00 | 0.00 | 0.00 | 58 | 1013.1 |
| 20260504050014 | 49 | 234 | 0.0 | 1.0 | 0.00 | 0.00 | 0.00 | 58 | 1013.1 |
| 20260504045515 | 49 | 234 | 0.0 | 1.0 | 0.00 | 0.00 | 0.00 | 57 | 1013.1 |
| 20260504045013 | 49 | 253 | 0.0 | 2.0 | 0.00 | 0.00 | 0.00 | 57 | 1013.1 |
| 20260504044513 | 49 | 243 | 0.0 | 2.0 | 0.00 | 0.00 | 0.00 | 57 | 1013.1 |
| 20260504044012 | 49 | 265 | 0.0 | 1.0 | 0.00 | 0.00 | 0.00 | 57 | 1013.1 |
| 20260504043510 | 50 | 127 | 0.0 | 1.0 | 0.00 | 0.00 | 0.00 | 57 | 1013.1 |
| 20260504043010 | 50 | 132 | 0.0 | 3.0 | 0.00 | 0.00 | 0.00 | 55 | 1013.2 |
| 20260504042509 | 50 | 250 | 0.0 | 7.0 | 0.00 | 0.00 | 0.00 | 55 | 1013.1 |
| 20260504042006 | 50 | 260 | 0.0 | 1.0 | 0.00 | 0.00 | 0.00 | 56 | 1013.1 |
| 20260504041506 | 50 | 272 | 0.0 | 6.0 | 0.00 | 0.00 | 0.00 | 56 | 1013.2 |
| 20260504041005 | 50 | 264 | 1.0 | 6.0 | 0.00 | 0.00 | 0.00 | 55 | 1013.1 |
| 20260504040504 | 50 | 304 | 0.0 | 2.0 | 0.00 | 0.00 | 0.00 | 56 | 1013.0 |
| 20260504040003 | 50 | 235 | 0.0 | 5.0 | 0.00 | 0.00 | 0.00 | 56 | 1013.0 |
| 20260504035503 | 50 | 224 | 0.0 | 3.0 | 0.00 | 0.00 | 0.00 | 57 | 1013.0 |
| 20260504035001 | 49 | 281 | 0.0 | 3.0 | 0.00 | 0.00 | 0.00 | 56 | 1012.8 |
| 20260504034501 | 49 | 266 | 0.0 | 1.0 | 0.00 | 0.00 | 0.00 | 57 | 1012.8 |
| 20260504034100 | 49 | 212 | 0.0 | 1.0 | 0.00 | 0.00 | 0.00 | 58 | 1012.8 |
| 20260504033559 | 49 | 231 | 0.0 | 1.0 | 0.00 | 0.00 | 0.00 | 58 | 1012.8 |
| 20260504033116 | 49 | 197 | 0.0 | 0.0 | 0.00 | 0.00 | 0.00 | 58 | 1012.7 |
| 20260504032559 | 49 | 193 | 0.0 | 0.0 | 0.00 | 0.00 | 0.00 | 58 | 1012.8 |
| 20260504032058 | 49 | 193 | 0.0 | 1.0 | 0.00 | 0.00 | 0.00 | 58 | 1012.7 |
| 20260504031603 | 49 | 231 | 0.0 | 1.0 | 0.00 | 0.00 | 0.00 | 58 | 1012.7 |
| 20260504031100 | 48 | 254 | 0.0 | 1.0 | 0.00 | 0.00 | 0.00 | 58 | 1012.7 |
| 20260504030555 | 48 | 238 | 0.0 | 2.0 | 0.00 | 0.00 | 0.00 | 59 | 1012.6 |
| 20260504030055 | 48 | 231 | 0.0 | 2.0 | 0.00 | 0.00 | 0.00 | 59 | 1012.6 |
| 20260504025554 | 49 | 221 | 0.0 | 0.0 | 0.00 | 0.00 | 0.00 | 59 | 1012.6 |
| 20260504025054 | 49 | 221 | 0.0 | 1.0 | 0.00 | 0.00 | 0.00 | 58 | 1012.6 |
| 20260504024600 | 49 | 221 | 0.0 | 1.0 | 0.00 | 0.00 | 0.00 | 58 | 1012.6 |
| 20260504024052 | 48 | 221 | 0.0 | 2.0 | 0.00 | 0.00 | 0.00 | 58 | 1012.7 |
| 20260504023556 | 47 | 260 | 0.0 | 2.0 | 0.00 | 0.00 | 0.00 | 60 | 1012.6 |
| 20260504023051 | 46 | 254 | 0.0 | 0.0 | 0.00 | 0.00 | 0.00 | 62 | 1012.7 |
| 20260504022551 | 46 | 254 | 0.0 | 0.0 | 0.00 | 0.00 | 0.00 | 62 | 1012.7 |
| 20260504022050 | 46 | 254 | 0.0 | 0.0 | 0.00 | 0.00 | 0.00 | 62 | 1012.6 |
| 20260504021554 | 46 | 254 | 0.0 | 1.0 | 0.00 | 0.00 | 0.00 | 61 | 1012.7 |
| 20260504021052 | 46 | 254 | 0.0 | 0.0 | 0.00 | 0.00 | 0.00 | 62 | 1012.8 |
| 20260504020547 | 46 | 254 | 0.0 | 0.0 | 0.00 | 0.00 | 0.00 | 62 | 1012.7 |
| 20260504020050 | 46 | 254 | 0.0 | 0.0 | 0.00 | 0.00 | 0.00 | 62 | 1012.7 |
| 20260504015546 | 47 | 254 | 0.0 | 0.0 | 0.00 | 0.00 | 0.00 | 61 | 1012.7 |
| 20260504015047 | 47 | 254 | 0.0 | 0.0 | 0.00 | 0.00 | 0.00 | 62 | 1012.7 |
| 20260504014546 | 47 | 254 | 0.0 | 0.0 | 0.00 | 0.00 | 0.00 | 61 | 1012.7 |
| 20260504014046 | 47 | 254 | 0.0 | 0.0 | 0.00 | 0.00 | 0.00 | 60 | 1012.7 |
| 20260504013545 | 47 | 254 | 0.0 | 0.0 | 0.00 | 0.00 | 0.00 | 60 | 1012.5 |
| 20260504013048 | 47 | 254 | 0.0 | 0.0 | 0.00 | 0.00 | 0.00 | 61 | 1012.6 |
| 20260504012546 | 47 | 254 | 0.0 | 0.0 | 0.00 | 0.00 | 0.00 | 60 | 1012.6 |
| 20260504012044 | 47 | 254 | 0.0 | 0.0 | 0.00 | 0.00 | 0.00 | 59 | 1012.4 |
| 20260504011543 | 48 | 254 | 0.0 | 0.0 | 0.00 | 0.00 | 0.00 | 58 | 1012.5 |
| 20260504011040 | 48 | 254 | 0.0 | 0.0 | 0.00 | 0.00 | 0.00 | 58 | 1012.5 |
| 20260504010540 | 48 | 254 | 0.0 | 0.0 | 0.00 | 0.00 | 0.00 | 58 | 1012.6 |
| 20260504010040 | 48 | 254 | 0.0 | 0.0 | 0.00 | 0.00 | 0.00 | 59 | 1012.5 |
| 20260504005539 | 48 | 254 | 0.0 | 0.0 | 0.00 | 0.00 | 0.00 | 59 | 1012.5 |
| 20260504005039 | 49 | 254 | 0.0 | 0.0 | 0.00 | 0.00 | 0.00 | 58 | 1012.5 |
| 20260504004546 | 49 | 254 | 0.0 | 0.0 | 0.00 | 0.00 | 0.00 | 56 | 1012.5 |
| 20260504004037 | 50 | 254 | 0.0 | 0.0 | 0.00 | 0.00 | 0.00 | 55 | 1012.4 |
| 20260504003538 | 51 | 254 | 0.0 | 0.0 | 0.00 | 0.00 | 0.00 | 53 | 1012.4 |
| 20260504003036 | 51 | 254 | 0.0 | 0.0 | 0.00 | 0.00 | 0.00 | 52 | 1012.2 |
| 20260504002536 | 52 | 254 | 0.0 | 0.0 | 0.00 | 0.00 | 0.00 | 53 | 1012.2 |
| 20260504002037 | 53 | 254 | 0.0 | 1.0 | 0.00 | 0.00 | 0.00 | 51 | 1012.1 |
| 20260504001635 | 53 | 254 | 0.0 | 1.0 | 0.00 | 0.00 | 0.00 | 51 | 1012.0 |
| 20260504001034 | 54 | 226 | 0.0 | 3.0 | 0.00 | 0.00 | 0.00 | 50 | 1011.9 |
| 20260504000534 | 54 | 221 | 0.0 | 3.0 | 0.00 | 0.00 | 0.00 | 48 | 1011.9 |
| 20260504000034 | 55 | 238 | 0.0 | 4.0 | 0.00 | 0.00 | 0.00 | 48 | 1011.8 |
| 20260503235532 | 55 | 231 | 0.0 | 6.0 | 0.00 | 0.00 | 0.00 | 47 | 1011.7 |
| 20260503235032 | 56 | 255 | 0.0 | 4.0 | 0.00 | 0.00 | 0.00 | 47 | 1011.8 |
| 20260503234531 | 56 | 257 | 0.0 | 3.0 | 0.00 | 0.00 | 0.00 | 47 | 1011.7 |
| 20260503234031 | 57 | 236 | 0.0 | 5.0 | 0.00 | 0.00 | 0.00 | 46 | 1011.7 |
| 20260503233530 | 57 | 266 | 2.0 | 6.0 | 0.00 | 0.00 | 0.00 | 44 | 1011.5 |
| 20260503233031 | 57 | 260 | 1.0 | 8.0 | 0.00 | 0.00 | 0.00 | 44 | 1011.5 |
| 20260503232530 | 58 | 204 | 2.0 | 9.0 | 0.00 | 0.00 | 0.00 | 43 | 1011.5 |
| 20260503232027 | 58 | 259 | 3.0 | 9.0 | 0.00 | 0.00 | 0.00 | 43 | 1011.5 |
| 20260503231527 | 58 | 307 | 4.0 | 10.0 | 0.00 | 0.00 | 0.00 | 43 | 1011.6 |
| 20260503231026 | 58 | 263 | 3.0 | 10.0 | 0.00 | 0.00 | 0.00 | 44 | 1011.6 |
| 20260503230527 | 58 | 246 | 2.0 | 7.0 | 0.00 | 0.00 | 0.00 | 42 | 1011.4 |
| 20260503230032 | 59 | 249 | 1.0 | 9.0 | 0.00 | 0.00 | 0.00 | 43 | 1011.4 |
| 20260503225524 | 59 | 256 | 3.0 | 9.0 | 0.00 | 0.00 | 0.00 | 41 | 1011.4 |
| 20260503225023 | 59 | 246 | 2.0 | 8.0 | 0.00 | 0.00 | 0.00 | 44 | 1011.4 |
| 20260503224523 | 59 | 270 | 2.0 | 9.0 | 0.00 | 0.00 | 0.00 | 44 | 1011.3 |
| 20260503224021 | 59 | 221 | 3.0 | 9.0 | 0.00 | 0.00 | 0.00 | 43 | 1011.4 |
| 20260503223524 | 60 | 226 | 4.0 | 9.0 | 0.00 | 0.00 | 0.00 | 41 | 1011.3 |
| 20260503223019 | 60 | 259 | 2.0 | 9.0 | 0.00 | 0.00 | 0.00 | 41 | 1011.3 |
| 20260503222519 | 60 | 255 | 2.0 | 9.0 | 0.00 | 0.00 | 0.00 | 42 | 1011.2 |
| 20260503222018 | 60 | 253 | 3.0 | 10.0 | 0.00 | 0.00 | 0.00 | 41 | 1011.3 |
| 20260503221517 | 60 | 238 | 3.0 | 10.0 | 0.00 | 0.00 | 0.00 | 42 | 1011.4 |
| 20260503221017 | 60 | 243 | 3.0 | 9.0 | 0.00 | 0.00 | 0.00 | 43 | 1011.2 |
| 20260503220516 | 60 | 254 | 3.0 | 9.0 | 0.00 | 0.00 | 0.00 | 42 | 1011.3 |
| 20260503220016 | 60 | 222 | 3.0 | 11.0 | 0.00 | 0.00 | 0.00 | 41 | 1011.3 |
| 20260503215514 | 60 | 274 | 1.0 | 10.0 | 0.00 | 0.00 | 0.00 | 42 | 1011.5 |
| 20260503215014 | 60 | 203 | 5.0 | 10.0 | 0.00 | 0.00 | 0.00 | 40 | 1011.3 |
| 20260503214515 | 60 | 303 | 2.0 | 11.0 | 0.00 | 0.00 | 0.00 | 42 | 1011.4 |
| 20260503214116 | 59 | 358 | 4.0 | 14.0 | 0.00 | 0.00 | 0.00 | 41 | 1011.3 |
| 20260503213512 | 60 | 248 | 4.0 | 14.0 | 0.00 | 0.00 | 0.00 | 42 | 1011.3 |
| 20260503213016 | 59 | 252 | 3.0 | 10.0 | 0.00 | 0.00 | 0.00 | 41 | 1011.2 |
| 20260503212509 | 59 | 252 | 3.0 | 12.0 | 0.00 | 0.00 | 0.00 | 42 | 1011.2 |
| 20260503212010 | 59 | 258 | 4.0 | 12.0 | 0.00 | 0.00 | 0.00 | 42 | 1011.2 |
| 20260503211508 | 59 | 278 | 4.0 | 12.0 | 0.00 | 0.00 | 0.00 | 42 | 1011.2 |
| 20260503211007 | 59 | 243 | 3.0 | 13.0 | 0.00 | 0.00 | 0.00 | 43 | 1011.2 |
| 20260503210507 | 59 | 243 | 5.0 | 13.0 | 0.00 | 0.00 | 0.00 | 41 | 1011.2 |
| 20260503210007 | 59 | 235 | 3.0 | 14.0 | 0.00 | 0.00 | 0.00 | 43 | 1011.3 |
| 20260503205509 | 59 | 232 | 5.0 | 14.0 | 0.00 | 0.00 | 0.00 | 41 | 1011.2 |
| 20260503205006 | 59 | 271 | 3.0 | 8.0 | 0.00 | 0.00 | 0.00 | 39 | 1011.2 |
| 20260503204506 | 60 | 237 | 4.0 | 8.0 | 0.00 | 0.00 | 0.00 | 43 | 1011.3 |
| 20260503204005 | 60 | 245 | 2.0 | 11.0 | 0.00 | 0.00 | 0.00 | 41 | 1011.3 |
| 20260503203506 | 60 | 226 | 4.0 | 11.0 | 0.00 | 0.00 | 0.00 | 41 | 1011.3 |
| 20260503203004 | 60 | 266 | 3.0 | 9.0 | 0.00 | 0.00 | 0.00 | 43 | 1011.3 |
| 20260503202502 | 60 | 279 | 3.0 | 10.0 | 0.00 | 0.00 | 0.00 | 41 | 1011.3 |
| 20260503202003 | 60 | 157 | 4.0 | 12.0 | 0.00 | 0.00 | 0.00 | 40 | 1011.4 |
| 20260503201601 | 60 | 208 | 3.0 | 12.0 | 0.00 | 0.00 | 0.00 | 43 | 1011.4 |
| 20260503201101 | 59 | 219 | 4.0 | 11.0 | 0.00 | 0.00 | 0.00 | 42 | 1011.5 |
| 20260503200558 | 59 | 240 | 5.0 | 15.0 | 0.00 | 0.00 | 0.00 | 39 | 1011.6 |
| 20260503200058 | 59 | 172 | 2.0 | 15.0 | 0.00 | 0.00 | 0.00 | 41 | 1011.7 |
| 20260503195557 | 59 | 233 | 5.0 | 12.0 | 0.00 | 0.00 | 0.00 | 40 | 1011.7 |
| 20260503195056 | 59 | 217 | 2.0 | 7.0 | 0.00 | 0.00 | 0.00 | 40 | 1011.7 |
| 20260503194555 | 59 | 289 | 2.0 | 11.0 | 0.00 | 0.00 | 0.00 | 44 | 1011.7 |
| 20260503194055 | 58 | 198 | 2.0 | 9.0 | 0.00 | 0.00 | 0.00 | 43 | 1011.8 |
| 20260503193554 | 58 | 263 | 2.0 | 8.0 | 0.00 | 0.00 | 0.00 | 41 | 1012.0 |
| 20260503193057 | 57 | 255 | 3.0 | 9.0 | 0.00 | 0.00 | 0.00 | 42 | 1012.2 |
| 20260503192551 | 58 | 212 | 3.0 | 12.0 | 0.00 | 0.00 | 0.00 | 41 | 1012.2 |
| 20260503192050 | 57 | 205 | 5.0 | 12.0 | 0.00 | 0.00 | 0.00 | 41 | 1012.2 |
| 20260503191550 | 59 | 297 | 4.0 | 10.0 | 0.00 | 0.00 | 0.00 | 41 | 1012.1 |
| 20260503191048 | 58 | 237 | 2.0 | 12.0 | 0.00 | 0.00 | 0.00 | 42 | 1012.2 |
| 20260503190648 | 58 | 224 | 5.0 | 12.0 | 0.00 | 0.00 | 0.00 | 41 | 1012.2 |
| 20260503190051 | 58 | 262 | 5.0 | 12.0 | 0.00 | 0.00 | 0.00 | 41 | 1012.4 |
| 20260503185543 | 58 | 252 | 3.0 | 14.0 | 0.00 | 0.00 | 0.00 | 44 | 1012.3 |
| 20260503185143 | 58 | 274 | 3.0 | 14.0 | 0.00 | 0.00 | 0.00 | 46 | 1012.4 |
| 20260503184555 | 57 | 242 | 4.0 | 10.0 | 0.00 | 0.00 | 0.00 | 44 | 1012.6 |
| 20260503184042 | 57 | 231 | 3.0 | 10.0 | 0.00 | 0.00 | 0.00 | 43 | 1012.6 |
| 20260503183540 | 57 | 236 | 3.0 | 10.0 | 0.00 | 0.00 | 0.00 | 43 | 1012.7 |
| 20260503183041 | 57 | 278 | 3.0 | 11.0 | 0.00 | 0.00 | 0.00 | 44 | 1012.7 |
| 20260503182543 | 56 | 244 | 4.0 | 11.0 | 0.00 | 0.00 | 0.00 | 44 | 1012.8 |
| 20260503182039 | 56 | 242 | 3.0 | 12.0 | 0.00 | 0.00 | 0.00 | 47 | 1012.6 |
| 20260503181538 | 56 | 260 | 5.0 | 12.0 | 0.00 | 0.00 | 0.00 | 42 | 1012.9 |
| 20260503181035 | 55 | 249 | 3.0 | 10.0 | 0.00 | 0.00 | 0.00 | 45 | 1012.8 |
| 20260503180634 | 55 | 217 | 4.0 | 10.0 | 0.00 | 0.00 | 0.00 | 44 | 1012.9 |
| 20260503180033 | 55 | 269 | 2.0 | 12.0 | 0.00 | 0.00 | 0.00 | 47 | 1012.9 |
| 20260503175531 | 55 | 268 | 2.0 | 12.0 | 0.00 | 0.00 | 0.00 | 44 | 1012.9 |
| 20260503175031 | 56 | 223 | 5.0 | 12.0 | 0.00 | 0.00 | 0.00 | 43 | 1012.9 |
| 20260503174539 | 56 | 270 | 2.0 | 10.0 | 0.00 | 0.00 | 0.00 | 45 | 1013.0 |
| 20260503174029 | 56 | 269 | 3.0 | 12.0 | 0.00 | 0.00 | 0.00 | 45 | 1013.1 |
| 20260503173526 | 55 | 264 | 3.0 | 12.0 | 0.00 | 0.00 | 0.00 | 46 | 1013.0 |
| 20260503173023 | 55 | 265 | 2.0 | 9.0 | 0.00 | 0.00 | 0.00 | 47 | 1012.9 |
| 20260503172523 | 55 | 216 | 4.0 | 9.0 | 0.00 | 0.00 | 0.00 | 44 | 1013.0 |
| 20260503172022 | 54 | 288 | 4.0 | 11.0 | 0.00 | 0.00 | 0.00 | 47 | 1013.0 |
| 20260503171520 | 54 | 222 | 4.0 | 9.0 | 0.00 | 0.00 | 0.00 | 47 | 1013.1 |
| 20260503171019 | 53 | 271 | 4.0 | 11.0 | 0.00 | 0.00 | 0.00 | 47 | 1013.0 |
| 20260503170519 | 53 | 178 | 4.0 | 13.0 | 0.00 | 0.00 | 0.00 | 48 | 1013.2 |
| 20260503150551 | 50 | 257 | 2.0 | 9.0 | 0.00 | 0.00 | 0.00 | 48 | 1013.9 |
| 20260503131027 | 47 | 271 | 4.0 | 12.0 | 0.00 | 0.00 | 0.00 | 61 | 1014.1 |
| 20260503130525 | 46 | 314 | 2.0 | 8.0 | 0.00 | 0.00 | 0.00 | 63 | 1014.1 |
| 20260503110558 | 42 | 271 | 1.0 | 7.0 | 0.00 | 0.00 | 0.00 | 69 | 1013.4 |